Regional Weather Roundup
Issued by NWS

Home | Current Version | Previous Version | Graphics & Text | Print | Product List | Glossary On
Versions: 1 2 3 4 5 6 7 8 9 10 11 12 13 14 15 16 17 18 19 20 21 22 23 24 25 26 27 28 29 30 31 32 33 34 35 36 37 38 39 40 41 42 43 44 45 46 47 48 49 50
000
ASUS43 KLMK 271102
RWRKY
KENTUCKY REGIONAL WEATHER ROUNDUP
NATIONAL WEATHER SERVICE LOUISVILLE KY
700 AM EDT TUE JUN 27 2017

NOTE "FAIR" INDICATES FEW OR NO CLOUDS BELOW 12,000 FEET
WITH NO SIGNIFICANT WEATHER AND/OR OBSTRUCTIONS TO VISIBILITY.

KYZ001>023-026-027-061>063-070>075-271200-
WESTERN AND SOUTH CENTRAL KENTUCKY

CITY           SKY/WX    TMP DP  RH WIND       PRES   REMARKS
PADUCAH        CLEAR     59  56  89 CALM      30.13R
HENDERSON      CLEAR     52  51  97 CALM      30.15R
OWENSBORO      CLEAR     58  54  86 CALM      30.14R
HOPKINSVILLE   PTCLDY    60  57  92 CALM      30.11S
BOWLING GREEN  CLEAR     60  57  89 CALM      30.13R
GLASGOW        NOT AVBL
$$

KYZ024-025-028>034-038-045-046-053-271200-
NORTH CENTRAL KENTUCKY

CITY           SKY/WX    TMP DP  RH WIND       PRES   REMARKS
LOUISVILLE/SDF PTCLDY    60  57  89 CALM      30.14R
LOUISVILLE/LOU CLEAR     58  58 100 CALM      30.15R FOG
FORT KNOX      PTCLDY    54  52  94 CALM      30.13R
$$

KYZ035>037-039>044-047>052-055>060-089>105-271200-
NORTHEAST KENTUCKY

CITY           SKY/WX    TMP DP  RH WIND       PRES   REMARKS
LEXINGTON      PTCLDY    56  53  90 CALM      30.14R
COVINGTON      CLEAR     54  50  86 W3        30.13R
FRANKFORT      CLEAR     56  52  86 CALM      30.13R
$$

KYZ054-064>069-076>088-106>120-271200-
SOUTHEAST KENTUCKY

CITY           SKY/WX    TMP DP  RH WIND       PRES   REMARKS
JACKSON        CLEAR     56  52  86 W3        30.15R
LONDON         CLEAR     56  53  90 CALM      30.15R
SOMERSET       CLEAR     52  52 100 CALM      30.16R
MIDDLESBORO    MOCLDY    54  54 100 CALM      30.15S
MONTICELLO     MOSUNNY   54  53  97 CALM      30.17R
$$





USA.gov is the U.S. government's official web portal to all federal, state and local government web resources and services.